Weather Roundup
Issued by NWS Chicago, IL

Home | Current Version | Previous Version | Graphics & Text | Print | Product List | Glossary On
Versions: 1 2 3 4 5 6 7 8 9 10 11 12 13 14 15 16 17 18 19 20 21 22 23 24 25 26 27 28 29 30 31 32 33 34 35 36 37 38 39 40 41 42 43 44 45 46 47 48 49 50
000
NZUS59 KLOT 240409
HRRLOT

CHICAGO AREA WEATHER ROUNDUP
NATIONAL WEATHER SERVICE CHICAGO/ROMEOVILLE IL
1100 PM CDT TUE AUG 23 2016

NOTE: "FAIR" INDICATES FEW OR NO CLOUDS BELOW 12,000 FEET WITH NO
SIGNIFICANT WEATHER AND/OR OBSTRUCTIONS TO VISIBILITY.

* THESE STATIONS ARE NOT UNDER NWS QUALITY CONTROL. THEY ALSO MAY NOT
  REPORT WEATHER SUCH AS PRECIPITATION OR FOG.

ILZ005-006-012>014-019>023-240500-
NORTHEAST ILLINOIS

CITY           SKY/WX    TMP DP  RH WIND       PRES   REMARKS
OHARE          CLOUDY    74  62  66 S14       30.09F
MIDWAY         CLOUDY    76  62  62 S9        30.09F
AURORA         CLOUDY    74  66  76 SE9       30.09S
LANSING*       CLOUDY    72  62  71 S6        30.11F
JOLIET*        CLOUDY    74  66  76 S6        30.10S
WAUKEGAN       MOCLDY    74  62  66 S8        30.08F
DUPAGE AIRPORT CLOUDY    74  63  68 S10       30.08F
WHEELING       CLOUDY    75  62  64 S9        30.10F
KANKAKEE*      CLEAR     69  64  85 SE6       30.11F
MORRIS*        CLOUDY    72  66  80 S6        30.08S
LEWIS AIRPORT* CLOUDY    72  62  71 S10       30.10S
NORTHERLY ISL    N/A     74  60  61 S7          N/A
$$

WIZ051-052-058>065-066-070>072-240500-
SOUTHEAST WISCONSIN

CITY           SKY/WX    TMP DP  RH WIND       PRES   REMARKS
MILWAUKEE      MOCLDY    73  61  65 S7        30.07F
KENOSHA*       CLEAR     71  61  70 S7        30.08F
RACINE*        PTCLDY    73  63  70 S10       30.09F
BURLINGTON     CLOUDY    69  61  75 S5        30.07F
WAUKESHA       MOCLDY    70  59  68 SE8       30.07F
$$

INZ001>003-010>013-019-020-240500-
NORTHWEST INDIANA

CITY           SKY/WX    TMP DP  RH WIND       PRES   REMARKS
GARY*          MOCLDY    73  64  72 SE6       30.12S
MICHIGAN CITY* NOT AVBL
RENSSELAER*    NOT AVBL
VALPARAISO     CLEAR     69  62  78 SE7       30.14F
$$

LMZ740>746-240500-
SOUTHERN LAKE MICHIGAN

STATION/POSITION TIME  SKY/WX   TEMP WIND        PRES    VSBY
                                AIR  DIR/SP/G
                 (UTC)          (F)  (DEG/KT/KT) (MB)    (MI)
HARRISON CRIB    0300            74  170/ 17/ 18   N/A
BURNHAM HARBOR   0400            74  170/  8/ 10   N/A
CALUMET HARBOR   0300            75  160/  8/ 14 1019.2F
BURNS HARBOR     0300            74  170/  9/ 17 1020.3F
MICHIGAN CITY    0300            72  130/  8/ 11   N/A
$$

ABBREVIATIONS USED IN REMARKS
   TC - TEMPERATURE IN CELSIUS
  WCI - WIND CHILL INDEX
   HX - HEAT INDEX
  VSB - VISIBILITY
$$




USA.gov is the U.S. government's official web portal to all federal, state and local government web resources and services.